Tracking 28125 objects as of 3-Oct-2023
HD Live streaming from Space Station
objects crossing your sky now

STARLINK-4518

Track STARLINK-4518 now!
10-day predictions
STARLINK-4518 is classified as:


NORAD ID: 53550
Int'l Code: 2022-101Z
Perigee: 545.9 km
Apogee: 547.9 km
Inclination: 53.2 °
Period: 95.4 minutes
Semi major axis: 6917 km
RCS: Unknown
Launch date: August 19, 2022
Source: United States (US)
Launch site: AIR FORCE EASTERN TEST RANGE (AFETR)
Your satellite tracking list
Your tracking list is empty




NASA's NSSDC Master Catalog

Two Line Element Set (TLE):
1 53550U 22101Z   23275.79822463  .00000818  00000-0  69462-4 0  9992
2 53550  53.2182  94.5126 0001485  96.9336 263.1825 15.08838852 62779
Source of the keplerian elements: AFSPC